Hourly Weather Roundup
Issued by NWS Central Illinois

Home | Current Version | Previous Version | Text Only | Print | Product List | Glossary On
Versions: 1 2 3 4 5 6 7 8 9 10 11 12 13 14 15 16 17 18 19 20 21 22 23 24 25 26 27 28 29 30 31 32 33 34 35 36 37 38 39 40 41 42 43 44 45 46 47 48 49 50
000
NZUS43 KILX 250210
HWRILX

AREA WEATHER ROUNDUP
NATIONAL WEATHER SERVICE, LINCOLN IL
900 PM CDT FRI OCT 24 2014


CITY           SKY/WX    TMP DP  RH WIND       PRES   REMARKS
BLOOMINGTON    CLOUDY    56  55  96 S7        30.00R FOG
CHAMPAIGN      MOCLDY    52  51  97 S8        30.00F FOG
DECATUR        CLEAR     57  53  86 S8        30.00F
FLORA          CLEAR     51  49  93 CALM      30.04S
GALESBURG      CLOUDY    61  54  76 S5        29.96R
JACKSONVILLE   PTCLDY    64  50  60 S6        29.96R
LACON          MOCLDY    59  50  72 S3        29.95S
LAWRENCEVILLE  CLEAR     54  50  86 S3        30.04R
LITCHFIELD     PTCLDY    57  48  72 S8        30.00S
$$


CITY           SKY/WX    TMP DP  RH WIND       PRES   REMARKS
LINCOLN        MOCLDY    56  52  86 SE3       29.97R
MACOMB         CLOUDY    55  50  83 S3        29.97S
MATTOON        PTCLDY    56  52  86 S6        30.00F
MT CARMEL AP   CLEAR     55  52  88 CALM      30.04S
OLNEY-NOBLE AP CLEAR     52  50  93 CALM      30.04S
PARIS          PTCLDY    49  48  97 SW5       30.02S
PEORIA         CLOUDY    63  50  62 S7        29.97S
PONTIAC        CLOUDY    59  54  83 S9        29.97F
RANTOUL        MOCLDY    54  53  94 SW3       30.00S FOG
ROBINSON       CLEAR     54  51  90 S3        30.05R
SPRINGFIELD    PTCLDY    62  51  67 S7        29.97F
TAYLORVILLE    FAIR      55  52  88 S7        29.99F
$$

...REGIONAL REPORTS...


CITY           SKY/WX    TMP DP  RH WIND       PRES   REMARKS
CHICAGO O`HARE MOCLDY    60  45  57 S8        29.94F
KANKAKEE       MOCLDY    53  47  83 SW7       29.99S
MOLINE         CLOUDY    60  56  86 W6        29.95R FOG
MOUNT VERNON   CLEAR     48  46  93 CALM      30.04S
PITTSFIELD     PTCLDY    65  54  67 S7        29.97S
QUINCY         MOCLDY    63  56  78 S9        29.95R
ROCKFORD       CLOUDY    58  48  69 S5        29.97R
$$


CITY           SKY/WX    TMP DP  RH WIND       PRES   REMARKS
BURLINGTON     CLOUDY    62  58  86 CALM      29.96R
CEDAR RAPIDS   CLOUDY    56  56 100 S6        29.94S FOG
DES MOINES     MOCLDY    60  58  92 S3        29.95R FOG
KIRKSVILLE     PTCLDY    63  60  90 CALM      29.96R
OTTUMWA        PTCLDY    60  58  92 S6        29.94S FOG
ST LOUIS       MOCLDY    67  49  52 S6        30.00S
$$


CITY           SKY/WX    TMP DP  RH WIND       PRES   REMARKS
TERRE HAUTE    CLEAR     50  47  89 CALM      30.02S
EVANSVILLE     CLEAR     57  52  83 W3        30.06R
INDIANAPOLIS   PTCLDY    52  48  86 S7        30.02R
LAFAYETTE      PTCLDY    53  49  86 SW3       30.00S
MADISON        CLOUDY    57  50  77 S3        29.91F
MILWAUKEE      CLOUDY    54  49  83 SW6       29.94S HAZE
$$





USA.gov is the U.S. government's official web portal to all federal, state and local government web resources and services.